THOR ABLESTAR DEB, 154

Orbit data source: Space-Track

THOR ABLESTAR DEB, 154 is space debris in LEO originally from a launch on Thu, 29 Jun 1961 UTC launched from the Air Force Eastern Test Range (AFETR). Debris objects in space refer to the collection of defunct objects orbiting the Earth. Examples of debris include non-operational satellites, rocket bodies, and fragments generated from explosions, collisions, or faulty payload assembly.

Loading next visibility...
Identifier
154, 1961-015AQ
Orbit
LEO
Country
Flag of USUS
Related business
Manufacturer
Unknown
Mission
Spacecraft
Bus & Motor
Unknown
Mass
Unknown
Launch date (UTC)
1961-06-29 (64 years ago)
Launch vehicle
Unknown
Launch site
Air Force Eastern Test Range (AFETR)
Object type
Payload
Rocket body
Debris
Shape & HBR
Unknown
Radar Cross Section
Medium (>0.1 m² and <1 m²)

Expand to show TLE details & history
Last TLE update: 18 hours ago

TLE from 18 hours ago
0 THOR ABLESTAR DEB
1 00154U 61015AQ  25258.08017221  .00000206  00000-0  16880-3 0  9990
2 00154  66.6570 126.4267 0086500 207.9804 151.6618 14.06091650277959
Epoch: 2025-09-15T01:55Z
TLE epoch observation values (Epoch: 2025-09-15T01:55:26.878Z)
Latitude
-0.00004°
Longitude
103.27473°
Altitude
930.188 km
Speed
7.359 km/s
True Right ascension
08h 25m 42s
True Declination
0° 00' 00"
Sunlit
Object was in daylight at epoch
Visualization orbit readout
Latitude
Unknown
Longitude
Unknown
Altitude
Unknown
Speed
Unknown
Apparent Right ascension
Unknown
Apparent Declination
Unknown
Sunlit
N/A
Visualization observer readout
Local Sidereal Time
12:25:06
Azimuth
Unknown
Elevation
Unknown
Doppler factor
Unknown
Orbital elements
Apogee altitude
933.882 km
Perigee altitude
808.468 km
Semi-major axis
7,249.312 km
Eccentricity
0.00865
Inclination
66.657°
RAAN
126.4267°
Arg. of periapsis
207.9804°
True anomaly
152.12786°
Mean anomaly
151.6618°
Eccentric anomaly
151.89527°
Mean motion
3.5164 °/min
Orbital period
102.38 mins
BSTAR
0.0001688
Loading maneuver chart data...
Computing Atmospheric mass density...

Documentation

Showing up to 5 results
|